[[{"header":{"parameterUnit":"m.s-1","parameterCategory":1,"la1":30.2991,"la2":30.254,"lo1":-89.0895,"lo2":-89.0444,"dy":0.0017,"dx":0.0017,"nx":28,"ny":28,"refTime":"2024-07-02T09:00:00:Z","depth":0,"parameterNumber":2,"parameterNumberName":"U-component_of_WINDS"},"data":[0,0,0,0,0,0,0,0,0,0,0,0,0,0,0,0,0,0,0,0,0,0,0,0,0,0,0,0,0,0,0,0,0,0,0,0,0,0,0,0,0,0,0,0,0,0,0,0,0,0,0,0,0,0,0,0,0,0,0.511,0.511,0,0.5125,0.5125,0.5125,0.5101,0.51,0.5099,0.5098,0.5115,0.5117,0.5118,0,0,0,0,0,0,0,0,0,0,0,0,0,0.506,0.5061,0.511,0.511,0.511,0.5125,0.5125,0.5125,0.5101,0.51,0.5099,0.5098,0.5115,0.5116,0.5118,0,0,0,0,0,0,0,0,0,0,0,0,0,0.5079,0.5061,0.511,0.51,0.5099,0.5125,0.5125,0.5125,0.5101,0.51,0.5099,0.5098,0.5115,0.5116,0.5118,0.5155,0,0,0.5124,0.5125,0,0,0,0,0,0,0,0,0.5078,0.5081,0.5101,0.51,0.51,0.511,0.5114,0.5135,0.5102,0.51,0.5098,0.5097,0.5115,0.5116,0.5122,0.5156,0.5156,0.5124,0.5125,0.5126,0.5126,0,0,0,0,0,0,0,0.5077,0.508,0.5116,0.5101,0.5101,0.5094,0.5096,0.5118,0.5114,0.51,0.5099,0.5101,0.5114,0.512,0.5122,0.5157,0.5124,0.5126,0.5127,0.5127,0.5219,0.5221,0,0,0,0,0,0,0.5076,0.5079,0.5115,0.5116,0.5085,0.5096,0.5098,0.5108,0.5114,0.5114,0.5102,0.51,0.5118,0.512,0.5123,0.5165,0.5126,0.5128,0.5129,0.5218,0.522,0.5221,0,0,0,0,0,0,0.5075,0.508,0.5115,0.5097,0.5101,0.5099,0.511,0.5109,0.5115,0.5115,0.5115,0.5109,0.5117,0.512,0.5147,0.5165,0.5128,0.513,0.5216,0.5218,0.522,0.525,0,0,0,0,0,0,0.5074,0.508,0.5094,0.5098,0.5102,0.5138,0.5111,0.511,0.5118,0.5115,0.5122,0.5121,0.5116,0.5144,0.5148,0.5167,0.5132,0.5215,0.5217,0.522,0.5247,0.5253,0.5257,0,0,0,0,0,0.5072,0.5102,0.5094,0.5099,0.512,0.5139,0.5142,0.5135,0.512,0.5133,0.5133,0.5121,0.5162,0.5147,0.5152,0.5171,0.5214,0.5217,0.522,0.5245,0.5252,0.5257,0,0,0,0,0,0,0.5101,0.5102,0.5094,0.5126,0.5133,0.5135,0.5152,0.5142,0.5154,0.5151,0.5142,0.5144,0.5171,0.5174,0.5157,0.5206,0.5185,0.519,0.5203,0.5209,0.5214,0.5213,0.5133,0,0,0,0,0,0.5111,0.5127,0.5127,0.5155,0.5159,0.5155,0.5164,0.5157,0.5164,0.5167,0.5169,0.5176,0.519,0.52,0.5214,0.5248,0.5248,0.5263,0.5268,0.5272,0.5276,0.5292,0.5299,0.5231,0.5231,0.5231,0,0,0.5132,0.5135,0.5145,0.5161,0.5166,0.5182,0.5158,0.5177,0.5188,0.517,0.5194,0.5196,0.5204,0.5233,0.5247,0.5236,0.5295,0.5276,0.528,0.5281,0.5296,0.5303,0.5308,0.5233,0.5232,0.5232,0,0,0.5178,0.5182,0.5205,0.521,0.5216,0.5213,0.5219,0.5223,0.5223,0.5247,0.5233,0.5247,0.5273,0.5278,0.5284,0.5331,0.5319,0.5335,0.5361,0.5378,0.5383,0.5388,0.5403,0.5409,0.5339,0.5339,0.5339,0,0.5203,0.5227,0.5218,0.5237,0.5244,0.5227,0.525,0.5255,0.5266,0.5271,0.526,0.529,0.5294,0.5324,0.5335,0.5341,0.5346,0.5334,0.5383,0.5387,0.5392,0.5406,0.5412,0.5341,0.5341,0.534,0.534,0,0.5257,0.5273,0.5291,0.5301,0.531,0.5331,0.5325,0.5335,0.5328,0.5326,0.535,0.5354,0.5368,0.5374,0.5368,0.5403,0.5397,0.5384,0.5363,0.54,0.5413,0.5419,0.5343,0.5343,0.5342,0.5342,0,0,0.5321,0.5325,0.5332,0.5335,0.5341,0.5353,0.5373,0.5385,0.5393,0.5402,0.5417,0.5438,0.5426,0.5433,0.5427,0.5442,0.5477,0.5427,0.5427,0.5435,0.5514,0.5523,0.5529,0.5469,0.5471,0.5471,0.5513,0,0.5366,0.5399,0.5391,0.5424,0.5439,0.5423,0.544,0.5445,0.5444,0.5456,0.5455,0.5469,0.5453,0.5457,0.547,0.547,0.5492,0.5467,0.5484,0.5484,0.5481,0.5536,0.5546,0.5585,0.5518,0.5519,0.552,0,0.5422,0.5431,0.5465,0.5467,0.5472,0.5488,0.5497,0.5509,0.5515,0.5513,0.552,0.5511,0.553,0.5509,0.5535,0.5518,0.5524,0.5525,0.5526,0.5527,0.5504,0.5537,0.5597,0.5603,0.5528,0.5528,0.5527,0,0.5464,0.5485,0.5507,0.5511,0.5514,0.5525,0.5526,0.553,0.5538,0.5546,0.5551,0.5562,0.5568,0.5577,0.5571,0.5557,0.5597,0.5577,0.5596,0.5596,0.5604,0.5604,0.5665,0.5611,0.5611,0.561,0.561,0,0.5514,0.5535,0.5525,0.5539,0.5562,0.5553,0.5576,0.5576,0.5579,0.5593,0.558,0.5593,0.5585,0.5597,0.5593,0.5614,0.5618,0.5616,0.5614,0.5617,0.5617,0.562,0.5617,0.5612,0.5612,0.5611,0.5611,0,0.5564,0.5559,0.5582,0.5582,0.5583,0.56,0.56,0.5613,0.561,0.5627,0.563,0.5627,0.564,0.5635,0.565,0.5647,0.5674,0.567,0.5672,0.567,0.5689,0.5687,0.5754,0.5762,0.5704,0.5704,0.5705,0,0.5595,0.5611,0.5613,0.562,0.5622,0.5635,0.5642,0.5634,0.5642,0.5648,0.566,0.5672,0.5681,0.5703,0.5702,0.5713,0.5708,0.5731,0.571,0.5711,0.5707,0.5706,0.5707,0.5735,0.5736,0.5736,0.5737,0,0.5651,0.5647,0.5658,0.5667,0.5675,0.5682,0.5688,0.5695,0.5687,0.5696,0.5709,0.5716,0.5731,0.5743,0.5752,0.5754,0.5744,0.5743,0.5748,0.575,0.575,0.5749,0.5682,0.5742,0.5741,0.5741,0.574,0.574,0.5692,0.5704,0.5707,0.5718,0.5722,0.5727,0.5738,0.5737,0.5747,0.5758,0.5753,0.5768,0.5772,0.5783,0.5787,0.5798,0.5789,0.5797,0.5798,0.58,0.5802,0.5749,0.58,0.58,0.58,0.58,0.58,0,0.5746,0.5746,0.5757,0.5765,0.5774,0.5763,0.5768,0.5776,0.5789,0.5794,0.5803,0.5817,0.5829,0.5828,0.5839,0.5848,0.5843,0.5851,0.585,0.585,0.581,0.5804,0.5854,0.5854,0.5854,0.5854,0.5854,0.5854,0.5774,0.5794,0.5791,0.5812,0.5813,0.5827,0.5831,0.5836,0.5839,0.5855,0.5864,0.5864,0.5866,0.5876,0.5886,0.5885,0.5889,0.5899,0.5896,0.5858,0.5853,0.5848,0.5842,0.59,0.59,0.5935,0.5936,0.5936]},{"header":{"parameterUnit":"m.s-1","parameterCategory":1,"la1":30.2991,"la2":30.254,"lo1":-89.0895,"lo2":-89.0444,"dy":0.0017,"dx":0.0017,"nx":28,"ny":28,"refTime":"2024-07-02T09:00:00:Z","depth":0,"parameterNumber":3,"parameterNumberName":"V-component_of_WINDS"},"data":[0,0,0,0,0,0,0,0,0,0,0,0,0,0,0,0,0,0,0,0,0,0,0,0,0,0,0,0,0,0,0,0,0,0,0,0,0,0,0,0,0,0,0,0,0,0,0,0,0,0,0,0,0,0,0,0,0,0,2.9474,2.9475,0,2.9585,2.9587,2.9588,2.9591,2.959,2.9588,2.9587,2.9697,2.9701,2.9705,0,0,0,0,0,0,0,0,0,0,0,0,0,2.9257,2.9261,2.9473,2.9475,2.9476,2.9585,2.9587,2.9588,2.9591,2.959,2.9588,2.9586,2.9696,2.9701,2.9706,0,0,0,0,0,0,0,0,0,0,0,0,0,2.9358,2.9262,2.9473,2.9491,2.9494,2.9585,2.9587,2.9589,2.9592,2.959,2.9588,2.9586,2.9694,2.97,2.9706,2.9786,0,0,2.9726,2.9728,0,0,0,0,0,0,0,0,2.9352,2.9366,2.9487,2.949,2.9493,2.9572,2.9551,2.9655,2.9592,2.9554,2.9587,2.9585,2.9657,2.9666,2.9691,2.9791,2.9796,2.9726,2.973,2.9733,2.9734,0,0,0,0,0,0,0,2.9345,2.9361,2.9518,2.9489,2.9493,2.9492,2.9504,2.957,2.9615,2.9557,2.9558,2.9571,2.9658,2.9685,2.9694,2.9797,2.9726,2.9732,2.9735,2.9738,2.9966,2.9968,0,0,0,0,0,0,2.9336,2.9355,2.9514,2.9521,2.9416,2.9497,2.9511,2.9549,2.9615,2.9623,2.9573,2.9571,2.9676,2.9687,2.9698,2.9794,2.9733,2.9739,2.9742,2.9963,2.9966,2.9969,0,0,0,0,0,0,2.9331,2.935,2.951,2.9438,2.9459,2.9503,2.9546,2.9552,2.9579,2.9627,2.9634,2.9593,2.9674,2.9689,2.9764,2.9798,2.9741,2.9747,2.9961,2.9964,2.9967,2.9988,0,0,0,0,0,0,2.9325,2.9348,2.938,2.9439,2.9463,2.9575,2.9548,2.9556,2.9591,2.9589,2.9647,2.9655,2.9674,2.9754,2.977,2.9806,2.9752,2.9958,2.9962,2.9966,2.9985,2.9992,2.9998,0,0,0,0,0,2.9317,2.9381,2.9382,2.9401,2.9504,2.9577,2.9591,2.9613,2.9594,2.9625,2.9655,2.9653,2.9792,2.9762,2.978,2.9818,2.9956,2.9961,2.9966,2.9982,2.999,2.9998,0,0,0,0,0,0,2.9324,2.9389,2.9391,2.9476,2.9521,2.9578,2.9619,2.9621,2.9672,2.9668,2.9692,2.9705,2.9779,2.9806,2.9772,2.9897,2.9871,2.988,2.9877,2.9886,2.9893,2.9884,2.9757,0,0,0,0,0,2.9335,2.9391,2.9445,2.9514,2.9537,2.9574,2.9607,2.962,2.9667,2.9686,2.9721,2.9766,2.9819,2.9854,2.9906,2.9988,3.0,3.0023,3.003,3.0035,3.0042,3.0086,3.0097,2.9985,2.9985,2.9985,0,0,2.9359,2.9402,2.9436,2.9517,2.9554,2.9609,2.959,2.965,2.9691,2.9694,2.9768,2.9795,2.9846,2.9925,2.9961,2.9949,3.0076,3.0042,3.0045,3.005,3.0092,3.0103,3.0112,2.9989,2.9988,2.9988,0,0,2.9431,2.947,2.9532,2.9569,2.9625,2.9649,2.9664,2.972,2.9739,2.9813,2.9816,2.9864,2.9956,2.9992,3.0022,3.0107,3.0106,3.0123,3.0158,3.02,3.0209,3.0217,3.0246,3.0256,3.013,3.013,3.013,0,2.9454,2.954,2.9563,2.9623,2.9658,2.9665,2.9726,2.9761,2.983,2.9853,2.9839,2.9954,2.9989,3.0076,3.0096,3.0121,3.0137,3.0116,3.0206,3.0214,3.0222,3.0249,3.026,3.0131,3.0131,3.0131,3.0131,0,2.9564,2.9623,2.9666,2.9734,2.9774,2.9834,2.9865,2.9902,2.9911,2.9935,3.0009,3.0051,3.0111,3.0133,3.0142,3.022,3.0211,3.0201,3.0176,3.0234,3.026,3.0271,3.0134,3.0133,3.0133,3.0132,0,0,2.9644,2.9724,2.9739,2.9769,2.9831,2.9876,2.9936,2.9996,3.0026,3.0074,3.0123,3.02,3.0192,3.0226,3.0239,3.0276,3.0339,3.0262,3.0263,3.0274,3.0426,3.0432,3.0444,3.0339,3.0341,3.0343,3.0421,0,2.9722,2.9831,2.9853,2.9946,3.0,3.0006,3.0058,3.01,3.0124,3.0172,3.0198,3.0252,3.0237,3.0257,3.0295,3.0323,3.0369,3.0318,3.0383,3.0385,3.037,3.0458,3.0466,3.0538,3.0432,3.0433,3.0435,0,2.9829,2.9879,2.9978,3.0031,3.0055,3.0101,3.0157,3.0203,3.025,3.0265,3.0303,3.0311,3.0372,3.0343,3.0426,3.039,3.0418,3.0436,3.0439,3.0446,3.0413,3.0466,3.0562,3.0572,3.0451,3.045,3.0449,0,2.9876,2.9969,3.0039,3.0065,3.0129,3.0162,3.0189,3.0235,3.0269,3.0317,3.0339,3.0393,3.0422,3.0463,3.0485,3.0463,3.0566,3.0539,3.0578,3.0577,3.0599,3.0597,3.0699,3.0618,3.0618,3.0618,3.0618,0,2.9961,3.0021,3.0061,3.0105,3.0171,3.0195,3.026,3.0287,3.0327,3.0374,3.0383,3.0427,3.0454,3.0501,3.0518,3.0583,3.0596,3.0609,3.0612,3.0608,3.0606,3.0626,3.0621,3.0621,3.062,3.0619,3.0619,0,3.0025,3.0055,3.0132,3.0187,3.0202,3.0248,3.0294,3.0335,3.0359,3.0419,3.0434,3.0471,3.0527,3.0553,3.0622,3.0634,3.0707,3.0707,3.0691,3.0693,3.0729,3.0725,3.0847,3.0864,3.0772,3.0773,3.0774,0,3.0077,3.0123,3.0182,3.0215,3.0244,3.0297,3.0332,3.0357,3.0392,3.0449,3.0483,3.054,3.0586,3.0675,3.0707,3.0759,3.076,3.08,3.0768,3.0762,3.076,3.0757,3.0761,3.0805,3.0806,3.0807,3.0807,0,3.0166,3.0178,3.0229,3.0285,3.0326,3.0371,3.0415,3.0441,3.0472,3.0511,3.0569,3.0605,3.0676,3.0731,3.0785,3.0812,3.0814,3.0817,3.0828,3.0824,3.0812,3.0818,3.0706,3.0814,3.0813,3.0813,3.0812,3.0812,3.0225,3.0266,3.0314,3.0369,3.0405,3.0446,3.0487,3.0516,3.0565,3.0625,3.0636,3.0697,3.0741,3.0815,3.0843,3.089,3.0881,3.0898,3.0902,3.0906,3.0908,3.0805,3.09,3.09,3.09,3.09,3.09,0,3.0313,3.0344,3.0395,3.0457,3.05,3.05,3.0548,3.0583,3.0638,3.0679,3.0725,3.0791,3.0844,3.088,3.0934,3.0964,3.0967,3.0977,3.0975,3.0981,3.0913,3.0898,3.0975,3.0975,3.0975,3.0975,3.0975,3.0975,3.0364,3.0433,3.0451,3.0536,3.0566,3.0628,3.0655,3.0691,3.0725,3.0798,3.0843,3.0867,3.0905,3.0962,3.101,3.1019,3.1038,3.1049,3.1058,3.0994,3.0986,3.0978,3.0964,3.1053,3.1054,3.1122,3.1122,3.1123]}]]